THOR ABLESTAR R/B, 1428

Orbit data source: Space-Track

THOR ABLESTAR R/B, 1428 is space debris in LEO originally from a launch on Thu, 24 Jun 1965 UTC launched from the Air Force Western Test Range (AFWTR). Debris objects in space refer to the collection of defunct objects orbiting the Earth. Examples of debris include non-operational satellites, rocket bodies, and fragments generated from explosions, collisions, or faulty payload assembly.

Loading next visibility...
Identifier
1428, 1965-048B
Orbit
LEO
Country
Flag of USUS
Related business
Manufacturer
Aerojet
Mission
Spacecraft
Bus & Motor
ABLESTAR, Unknown motor
Mass
~600 kg wet, 600 kg dry
Launch date (UTC)
Icon of a cake. It is the launch day of the satellite!1965-06-24 (61 years ago)
Launch vehicle
Unknown
Launch site
Air Force Western Test Range (AFWTR)
Object type
Payload
Rocket body
Debris
Shape & HBR
Unknown
Radar Cross Section
Large (>1 m²)

Expand to show TLE details & history
Last TLE update: 22 hours ago

TLE from 22 hours ago
0 THOR ABLESTAR R/B
1 01428U 65048B   26174.37554611  .00000018  00000-0  12265-4 0  9999
2 01428  89.8777 284.9268 0057698 160.1885 267.0431 13.52688228  9463
Epoch: 2026-06-23T09:00Z
TLE epoch observation values (Epoch: 2026-06-23T09:00:47.183Z)
Latitude
66.64957°
Longitude
-121.53597°
Altitude
1,076.46 km
Speed
7.319 km/s
True Right ascension
19h 00m 50s
True Declination
66° 31' 46"
Sunlit
Object was in daylight at epoch
Visualization orbit readout
Latitude
Unknown
Longitude
Unknown
Altitude
Unknown
Speed
Unknown
Apparent Right ascension
Unknown
Apparent Declination
Unknown
Sunlit
N/A
Visualization observer readout
Local Sidereal Time
17:53:17
Azimuth
Unknown
Elevation
Unknown
Doppler factor
Unknown
Orbital elements
Apogee altitude
1,102.343 km
Perigee altitude
1,016.517 km
Semi-major axis
7,437.567 km
Eccentricity
0.00577
Inclination
89.8777°
RAAN
284.9268°
Arg. of periapsis
160.1885°
True anomaly
266.38307°
Mean anomaly
267.0431°
Eccentric anomaly
266.71306°
Mean motion
3.38374 °/min
Orbital period
106.39 mins
BSTAR
0.000012265
Loading maneuver chart data...
Computing Atmospheric mass density...

Documentation

Showing up to 5 results
|